Regional Weather Roundup
Issued by NWS

Home | Current Version | Previous Version | Text Only | Print | Product List | Glossary On
Versions: 1 2 3 4 5 6 7 8 9 10 11 12 13 14 15 16 17 18 19 20 21 22 23 24 25 26 27 28 29 30 31 32 33 34 35 36 37 38 39 40 41 42 43 44 45 46 47 48 49 50
000
ASUS44 KJAN 302003
RWRMS

MISSISSIPPI HOURLY WEATHER ROUNDUP
NATIONAL WEATHER SERVICE JACKSON MS
300 PM CDT SAT JUL 30 2016

NOTE: "FAIR: INDICATES FEW OR NO CLOUDS BELOW 12,000 FEET WITH NO
SIGNIFICANT WEATHER AND/OR OBSTRUCTIONS TO VISIBILITY.

MSZ001>002-007>008-010>013-018>021-025>028-034>036-302100-
NORTHWEST MISSISSIPPI

CITY           SKY/WX    TMP DP  RH WIND       PRES   REMARKS
CLEVELAND      FAIR      90  78  69 NW6       29.97F HX 104
GREENWOOD      MOSUNNY   91  72  53 NW9       29.98F HX  98
GREENVILLE     SUNNY     93  74  53 N6        29.97F HX 103
OXFORD         FAIR      86  72  62 W7        30.01F HX  92
WINONA         FAIR      89  73  57 NW7       29.99F HX  97
$$

MSZ003>006-009-014>017-022>024-029>033-037>039-302100-
NORTHEAST MISSISSIPPI

CITY           SKY/WX    TMP DP  RH WIND       PRES   REMARKS
ABERDEEN       FAIR      84  66  54 CALM      30.00F
COLUMBUS AFB   CLOUDY    85  79  81 VRB2      29.99F HX  98
GOLDN TRIANGLE PTSUNNY   91  73  55 N5        29.98F HX 100
TUPELO         MOSUNNY   92  71  50 VRB3      29.97F HX  98
$$

MSZ040-058-302100-
CENTRAL MISSISSIPPI

CITY           SKY/WX    TMP DP  RH WIND       PRES   REMARKS
JACKSON INTL   TSTM      78  74  87 E12G23    30.03R VSB 1
JACKSON HAWKNS CLOUDY    86  76  71 NE5       30.01S HX  96
MADISON        MOCLDY    77  73  88 S5G16     30.01S THUNDER
MERIDIAN KEY   PTSUNNY   89  73  59 NW13G23   30.00S HX  97
MERIDIAN NAS   PTSUNNY   97  67  37 W9        29.98F HX 101
VICKSBURG VKS  PTCLDY    93  75  55 VRB3      29.98F HX 104
$$

MSZ059>079-302100-
SOUTH MISSISSIPPI

CITY           SKY/WX    TMP DP  RH WIND       PRES   REMARKS
BROOKHAVEN     MOCLDY   N/A N/A N/A W7        30.02F
COLUMBIA       MOCLDY    91  75  59 S7        30.03F HX 102
HATTIESBURG    CLOUDY    90  75  61 SE10      30.00F HX 100
MCCOMB         MOSUNNY   90  74  59 S6        30.01F HX  99
NATCHEZ        PTSUNNY   91  73  55 SW6       30.00F HX 100
PINE BELT      SUNNY     91  70  49 W3        30.02F HX  97
$$

MSZ080>082-302100-
COASTAL MISSISSIPPI

CITY           SKY/WX    TMP DP  RH WIND       PRES   REMARKS
BAY ST LOUIS   MOSUNNY   90  68  48 SW5       30.00F HX  93
BILOXI         PTSUNNY   89  77  67 SW13      30.00F HX 101
PASCAGOULA     MOSUNNY   90  80  72 SW8       30.00F HX 107
GULFPORT       PTSUNNY   89  75  63 S8        30.00F HX  99
$$

LAZ007>009-015>016-023>026-302100-
NORTHEAST LOUISIANA

CITY           SKY/WX    TMP DP  RH WIND       PRES   REMARKS
BASTROP        MOCLDY    87  79  76 CALM      29.99F HX 100
TALLULAH/VBURG MOSUNNY   95  75  52 VRB3      29.98F HX 107
VIDALIA        FAIR      91  76  62 W7        30.02F HX 102
$$



USA.gov is the U.S. government's official web portal to all federal, state and local government web resources and services.